| time (UTC) | temp F | wind direction | speed MPH | gust MPH | rain 1hr in | rain 24hr in | rain mn in | humidity % | barometer mb |
| 20260506201503 | 58 | 261 | 2.0 | 8.0 | 0.00 | 0.61 | 0.61 | 98 | 1004.9 |
| 20260506200004 | 58 | 210 | 2.0 | 6.0 | 0.00 | 0.61 | 0.61 | 99 | 1005.0 |
| 20260506194504 | 58 | 226 | 2.0 | 7.0 | 0.01 | 0.61 | 0.61 | 99 | 1005.1 |
| 20260506193004 | 58 | 189 | 4.0 | 10.0 | 0.01 | 0.61 | 0.61 | 99 | 1005.3 |
| 20260506190004 | 57 | 189 | 1.0 | 7.0 | 0.03 | 0.61 | 0.61 | 99 | 1005.4 |
| 20260506183005 | 57 | 187 | 2.0 | 9.0 | 0.06 | 0.60 | 0.60 | 99 | 1005.5 |
| 20260506181504 | 57 | 208 | 2.0 | 7.0 | 0.08 | 0.59 | 0.59 | 98 | 1005.6 |
| 20260506180005 | 57 | 248 | 3.0 | 12.0 | 0.09 | 0.58 | 0.58 | 99 | 1005.7 |
| 20260506174504 | 57 | 197 | 3.0 | 12.0 | 0.11 | 0.57 | 0.57 | 98 | 1005.7 |
| 20260506173004 | 56 | 181 | 2.0 | 6.0 | 0.09 | 0.54 | 0.54 | 98 | 1005.8 |
| 20260506170004 | 56 | 261 | 3.0 | 13.0 | 0.07 | 0.49 | 0.49 | 98 | 1005.6 |
| 20260506164504 | 56 | 243 | 5.0 | 12.0 | 0.06 | 0.46 | 0.46 | 98 | 1005.6 |
| 20260506163004 | 56 | 176 | 3.0 | 12.0 | 0.10 | 0.45 | 0.45 | 98 | 1005.6 |
| 20260506161504 | 56 | 174 | 4.0 | 9.0 | 0.16 | 0.44 | 0.44 | 98 | 1005.7 |
| 20260506160004 | 56 | 187 | 3.0 | 10.0 | 0.16 | 0.42 | 0.42 | 98 | 1005.8 |
| 20260506154504 | 56 | 192 | 2.0 | 14.0 | 0.16 | 0.40 | 0.40 | 97 | 1005.9 |
| 20260506151503 | 56 | 203 | 3.0 | 13.0 | 0.09 | 0.28 | 0.28 | 97 | 1006.1 |
| 20260506150005 | 56 | 231 | 2.0 | 14.0 | 0.09 | 0.26 | 0.26 | 97 | 1005.9 |
| 20260506144504 | 56 | 189 | 3.0 | 16.0 | 0.10 | 0.24 | 0.24 | 97 | 1005.8 |
| 20260506143004 | 56 | 183 | 5.0 | 13.0 | 0.11 | 0.22 | 0.22 | 97 | 1005.9 |
| 20260506141504 | 56 | 170 | 5.0 | 9.0 | 0.12 | 0.19 | 0.19 | 97 | 1006.0 |
| 20260506140005 | 57 | 182 | 3.0 | 10.0 | 0.13 | 0.17 | 0.17 | 97 | 1006.4 |
| 20260506131504 | 57 | 191 | 2.0 | 8.0 | 0.07 | 0.07 | 0.07 | 95 | 1006.8 |
| 20260506130005 | 57 | 196 | 2.0 | 12.0 | 0.04 | 0.04 | 0.04 | 94 | 1007.0 |
| 20260506124504 | 58 | 179 | 4.0 | 10.0 | 0.02 | 0.02 | 0.02 | 93 | 1006.7 |
| 20260506123004 | 58 | 204 | 5.0 | 10.0 | 0.00 | 0.00 | 0.00 | 92 | 1006.7 |
| 20260506121504 | 58 | 196 | 2.0 | 9.0 | 0.00 | 0.00 | 0.00 | 90 | 1006.6 |
| 20260506120004 | 59 | 155 | 3.0 | 10.0 | 0.00 | 0.00 | 0.00 | 88 | 1006.6 |
| 20260506114504 | 59 | 169 | 3.0 | 14.0 | 0.00 | 0.00 | 0.00 | 87 | 1006.6 |
| 20260506113004 | 60 | 155 | 4.0 | 12.0 | 0.00 | 0.00 | 0.00 | 84 | 1006.7 |
| 20260506111504 | 60 | 184 | 5.0 | 12.0 | 0.00 | 0.00 | 0.00 | 81 | 1006.4 |
| 20260506110004 | 60 | 171 | 3.0 | 13.0 | 0.00 | 0.00 | 0.00 | 79 | 1006.4 |
| 20260506104504 | 60 | 185 | 3.0 | 13.0 | 0.00 | 0.00 | 0.00 | 77 | 1006.2 |
| 20260506103004 | 60 | 175 | 3.0 | 12.0 | 0.00 | 0.00 | 0.00 | 77 | 1005.9 |
| 20260506101504 | 60 | 173 | 2.0 | 12.0 | 0.00 | 0.00 | 0.00 | 76 | 1006.1 |
| 20260506100004 | 60 | 215 | 4.0 | 9.0 | 0.00 | 0.00 | 0.00 | 75 | 1006.2 |
| 20260506094503 | 60 | 174 | 2.0 | 8.0 | 0.00 | 0.00 | 0.00 | 75 | 1006.5 |
| 20260506091504 | 60 | 172 | 1.0 | 6.0 | 0.00 | 0.00 | 0.00 | 72 | 1006.5 |
| 20260506090004 | 60 | 186 | 3.0 | 7.0 | 0.00 | 0.00 | 0.00 | 71 | 1006.6 |
| 20260506083005 | 61 | 254 | 0.0 | 5.0 | 0.00 | 0.00 | 0.00 | 69 | 1006.7 |
| 20260506081504 | 61 | 170 | 2.0 | 7.0 | 0.00 | 0.00 | 0.00 | 68 | 1006.6 |
| 20260506073004 | 62 | 186 | 4.0 | 10.0 | 0.00 | 0.00 | 0.00 | 66 | 1006.9 |
| 20260506071504 | 62 | 146 | 2.0 | 7.0 | 0.00 | 0.00 | 0.00 | 66 | 1007.1 |
| 20260506061504 | 61 | 230 | 3.0 | 7.0 | 0.00 | 0.00 | 0.00 | 65 | 1007.5 |
| 20260506044503 | 58 | 186 | 1.0 | 3.0 | 0.00 | 0.00 | 0.00 | 68 | 1008.0 |
| 20260506043004 | 59 | 186 | 1.0 | 3.0 | 0.00 | 0.00 | 0.00 | 66 | 1008.1 |
| 20260506041504 | 60 | 187 | 1.0 | 3.0 | 0.00 | 0.00 | 0.00 | 64 | 1008.1 |
| 20260506040004 | 61 | 188 | 1.0 | 5.0 | 0.00 | 0.00 | 0.00 | 63 | 1008.2 |
| 20260506034503 | 62 | 174 | 1.0 | 3.0 | 0.00 | 0.00 | 0.00 | 61 | 1008.2 |
| 20260506033005 | 63 | 212 | 2.0 | 6.0 | 0.00 | 0.00 | 0.00 | 60 | 1008.2 |
| 20260506031504 | 64 | 185 | 1.0 | 6.0 | 0.00 | 0.00 | 0.00 | 58 | 1008.1 |
| 20260506024504 | 65 | 183 | 1.0 | 6.0 | 0.00 | 0.00 | 0.00 | 57 | 1008.2 |
| 20260506021503 | 67 | 204 | 2.0 | 7.0 | 0.00 | 0.00 | 0.00 | 56 | 1008.2 |
| 20260506020003 | 67 | 207 | 2.0 | 12.0 | 0.00 | 0.00 | 0.00 | 55 | 1008.1 |
| 20260506014505 | 68 | 196 | 5.0 | 10.0 | 0.00 | 0.00 | 0.00 | 54 | 1008.1 |
| 20260506013004 | 69 | 222 | 3.0 | 10.0 | 0.00 | 0.00 | 0.00 | 53 | 1008.1 |
| 20260506011504 | 69 | 212 | 2.0 | 12.0 | 0.00 | 0.00 | 0.00 | 52 | 1007.8 |
| 20260506010004 | 70 | 195 | 2.0 | 12.0 | 0.00 | 0.00 | 0.00 | 52 | 1007.7 |
| 20260506004505 | 70 | 185 | 4.0 | 12.0 | 0.00 | 0.00 | 0.00 | 51 | 1007.5 |
| 20260506003004 | 70 | 221 | 4.0 | 12.0 | 0.00 | 0.00 | 0.00 | 49 | 1007.4 |
| 20260506001503 | 71 | 179 | 1.0 | 9.0 | 0.00 | 0.00 | 0.00 | 48 | 1007.2 |
| 20260506000004 | 71 | 194 | 4.0 | 16.0 | 0.00 | 0.00 | 0.00 | 47 | 1007.1 |
| 20260505234504 | 71 | 194 | 4.0 | 15.0 | 0.00 | 0.00 | 0.00 | 47 | 1007.1 |
| 20260505233004 | 71 | 195 | 3.0 | 18.0 | 0.00 | 0.00 | 0.00 | 47 | 1006.9 |
| 20260505231504 | 71 | 207 | 3.0 | 12.0 | 0.00 | 0.00 | 0.00 | 48 | 1006.9 |
| 20260505230003 | 72 | 218 | 3.0 | 14.0 | 0.00 | 0.00 | 0.00 | 48 | 1006.9 |
| 20260505224504 | 72 | 199 | 5.0 | 16.0 | 0.00 | 0.00 | 0.00 | 48 | 1006.8 |
| 20260505223004 | 72 | 205 | 2.0 | 12.0 | 0.00 | 0.00 | 0.00 | 48 | 1006.7 |
| 20260505221504 | 72 | 245 | 4.0 | 9.0 | 0.00 | 0.00 | 0.00 | 48 | 1006.7 |
| 20260505220003 | 72 | 269 | 4.0 | 15.0 | 0.00 | 0.00 | 0.00 | 49 | 1006.7 |
| 20260505214504 | 73 | 250 | 3.0 | 12.0 | 0.00 | 0.00 | 0.00 | 48 | 1006.6 |
| 20260505213003 | 74 | 229 | 6.0 | 14.0 | 0.00 | 0.00 | 0.00 | 45 | 1006.5 |
| 20260505211504 | 74 | 201 | 3.0 | 13.0 | 0.00 | 0.00 | 0.00 | 45 | 1006.4 |
| 20260505210004 | 74 | 236 | 7.0 | 25.0 | 0.00 | 0.00 | 0.00 | 44 | 1006.3 |
| 20260505204505 | 75 | 192 | 6.0 | 25.0 | 0.00 | 0.00 | 0.00 | 44 | 1006.1 |
| 20260505203004 | 75 | 235 | 5.0 | 20.0 | 0.00 | 0.00 | 0.00 | 44 | 1006.2 |